Time,TemperatureF,DewpointF,PressureIn,WindDirection,WindDirectionDegrees,WindSpeedMPH,WindSpeedGustMPH,Humidity,HourlyPrecipIn,Conditions,Clouds,dailyrainin,SoftwareType,DateUTC
2013-05-15 00:00:00,70.1,65.7,30.17,North,32767,0.0,0.0,86,0.00,,,0.00,Wunderground v.1.15,2013-05-15 05:00:00,
2013-05-15 00:05:00,70.0,65.6,30.17,North,32767,0.0,0.0,86,0.00,,,0.00,Wunderground v.1.15,2013-05-15 05:05:00,
2013-05-15 00:10:00,70.0,65.6,30.17,North,32767,0.0,0.0,86,0.00,,,0.00,Wunderground v.1.15,2013-05-15 05:10:00,
2013-05-15 00:15:00,69.9,65.5,30.17,North,32767,0.0,0.0,86,0.00,,,0.00,Wunderground v.1.15,2013-05-15 05:15:00,
2013-05-15 00:20:00,69.8,65.8,30.17,North,32767,0.0,0.0,87,0.00,,,0.00,Wunderground v.1.15,2013-05-15 05:20:00,
2013-05-15 00:25:00,69.8,65.8,30.17,North,32767,0.0,0.0,87,0.00,,,0.00,Wunderground v.1.15,2013-05-15 05:25:00,
2013-05-15 00:30:00,69.8,65.8,30.17,North,32767,0.0,0.0,87,0.00,,,0.00,Wunderground v.1.15,2013-05-15 05:30:00,
2013-05-15 00:35:00,69.8,65.8,30.17,North,32767,0.0,0.0,87,0.00,,,0.00,Wunderground v.1.15,2013-05-15 05:35:00,
2013-05-15 00:40:00,69.7,65.7,30.17,North,32767,0.0,0.0,87,0.00,,,0.00,Wunderground v.1.15,2013-05-15 05:40:00,
2013-05-15 00:45:00,69.7,65.7,30.17,North,32767,0.0,0.0,87,0.00,,,0.00,Wunderground v.1.15,2013-05-15 05:45:00,
2013-05-15 00:50:00,69.8,65.8,30.17,North,32767,0.0,0.0,87,0.00,,,0.00,Wunderground v.1.15,2013-05-15 05:50:00,
2013-05-15 00:55:00,69.7,65.3,30.16,North,32767,0.0,0.0,86,0.00,,,0.00,Wunderground v.1.15,2013-05-15 05:55:00,
2013-05-15 01:00:00,69.6,65.2,30.16,North,32767,0.0,0.0,86,0.00,,,0.00,Wunderground v.1.15,2013-05-15 06:00:00,
2013-05-15 01:05:00,69.7,65.7,30.16,North,32767,0.0,0.0,87,0.00,,,0.00,Wunderground v.1.15,2013-05-15 06:05:00,
2013-05-15 01:10:00,69.6,65.6,30.16,North,32767,0.0,0.0,87,0.00,,,0.00,Wunderground v.1.15,2013-05-15 06:10:00,
2013-05-15 01:15:00,69.5,65.8,30.16,North,32767,0.0,0.0,88,0.00,,,0.00,Wunderground v.1.15,2013-05-15 06:15:00,
2013-05-15 01:20:00,69.3,65.6,30.16,North,32767,0.0,0.0,88,0.00,,,0.00,Wunderground v.1.15,2013-05-15 06:20:00,
2013-05-15 01:25:00,69.3,65.6,30.16,North,32767,0.0,0.0,88,0.00,,,0.00,Wunderground v.1.15,2013-05-15 06:25:00,
2013-05-15 01:30:00,69.3,65.6,30.16,North,32767,0.0,0.0,88,0.00,,,0.00,Wunderground v.1.15,2013-05-15 06:30:00,
2013-05-15 01:35:00,69.2,65.5,30.15,North,32767,0.0,0.0,88,0.00,,,0.00,Wunderground v.1.15,2013-05-15 06:35:00,
2013-05-15 01:40:00,69.2,65.8,30.15,North,32767,0.0,0.0,89,0.00,,,0.00,Wunderground v.1.15,2013-05-15 06:40:00,
2013-05-15 01:45:00,69.1,65.7,30.15,North,32767,0.0,0.0,89,0.00,,,0.00,Wunderground v.1.15,2013-05-15 06:45:00,
2013-05-15 01:50:00,69.0,65.6,30.14,North,32767,0.0,0.0,89,0.00,,,0.00,Wunderground v.1.15,2013-05-15 06:50:00,
2013-05-15 01:55:00,68.9,65.8,30.15,North,32767,0.0,0.0,90,0.00,,,0.00,Wunderground v.1.15,2013-05-15 06:55:00,
2013-05-15 02:00:00,68.9,65.8,30.15,North,32767,0.0,0.0,90,0.00,,,0.00,Wunderground v.1.15,2013-05-15 07:00:00,
2013-05-15 02:05:00,68.9,66.2,30.15,North,32767,0.0,0.0,91,0.00,,,0.00,Wunderground v.1.15,2013-05-15 07:05:00,
2013-05-15 02:10:00,68.8,66.1,30.15,North,32767,0.0,0.0,91,0.00,,,0.00,Wunderground v.1.15,2013-05-15 07:10:00,
2013-05-15 02:15:00,68.8,66.1,30.15,North,32767,0.0,0.0,91,0.00,,,0.00,Wunderground v.1.15,2013-05-15 07:15:00,
2013-05-15 02:20:00,68.8,66.1,30.15,North,32767,0.0,0.0,91,0.00,,,0.00,Wunderground v.1.15,2013-05-15 07:20:00,
2013-05-15 02:25:00,68.8,66.1,30.15,North,32767,0.0,0.0,91,0.00,,,0.00,Wunderground v.1.15,2013-05-15 07:25:00,
2013-05-15 02:30:00,68.8,66.1,30.15,North,32767,0.0,0.0,91,0.00,,,0.00,Wunderground v.1.15,2013-05-15 07:30:00,
2013-05-15 02:35:00,68.8,66.1,30.15,North,32767,0.0,0.0,91,0.00,,,0.00,Wunderground v.1.15,2013-05-15 07:35:00,
2013-05-15 02:40:00,68.8,66.1,30.15,North,32767,0.0,0.0,91,0.00,,,0.00,Wunderground v.1.15,2013-05-15 07:40:00,
2013-05-15 02:45:00,68.8,66.1,30.15,North,32767,0.0,0.0,91,0.00,,,0.00,Wunderground v.1.15,2013-05-15 07:45:00,
2013-05-15 02:50:00,68.8,66.1,30.15,North,32767,0.0,0.0,91,0.00,,,0.00,Wunderground v.1.15,2013-05-15 07:50:00,
2013-05-15 02:55:00,68.8,66.1,30.16,North,32767,0.0,0.0,91,0.00,,,0.00,Wunderground v.1.15,2013-05-15 07:55:00,
2013-05-15 03:00:00,68.8,66.1,30.16,North,32767,0.0,0.0,91,0.00,,,0.00,Wunderground v.1.15,2013-05-15 08:00:00,
2013-05-15 03:05:00,68.7,66.3,30.16,North,32767,0.0,0.0,92,0.00,,,0.00,Wunderground v.1.15,2013-05-15 08:05:00,
2013-05-15 03:10:00,68.6,66.2,30.16,North,32767,0.0,0.0,92,0.00,,,0.00,Wunderground v.1.15,2013-05-15 08:10:00,
2013-05-15 03:15:00,68.5,66.1,30.16,North,32767,0.0,0.0,92,0.00,,,0.00,Wunderground v.1.15,2013-05-15 08:15:00,
2013-05-15 03:20:00,68.4,66.0,30.16,North,32767,0.0,0.0,92,0.00,,,0.00,Wunderground v.1.15,2013-05-15 08:20:00,
2013-05-15 03:25:00,68.3,65.9,30.16,North,32767,0.0,0.0,92,0.00,,,0.00,Wunderground v.1.15,2013-05-15 08:25:00,
2013-05-15 03:30:00,68.3,65.9,30.16,North,32767,0.0,0.0,92,0.00,,,0.00,Wunderground v.1.15,2013-05-15 08:30:00,
2013-05-15 03:35:00,68.2,65.8,30.16,North,32767,0.0,0.0,92,0.00,,,0.00,Wunderground v.1.15,2013-05-15 08:35:00,
2013-05-15 03:40:00,68.1,65.7,30.17,North,32767,0.0,0.0,92,0.00,,,0.00,Wunderground v.1.15,2013-05-15 08:40:00,
2013-05-15 03:45:00,68.1,65.7,30.16,North,32767,0.0,0.0,92,0.00,,,0.00,Wunderground v.1.15,2013-05-15 08:45:00,
2013-05-15 03:50:00,68.0,65.9,30.16,North,32767,0.0,0.0,93,0.00,,,0.00,Wunderground v.1.15,2013-05-15 08:50:00,
2013-05-15 03:55:00,67.9,65.8,30.17,North,32767,0.0,0.0,93,0.00,,,0.00,Wunderground v.1.15,2013-05-15 08:55:00,
2013-05-15 04:00:00,67.8,65.7,30.17,North,32767,0.0,0.0,93,0.00,,,0.00,Wunderground v.1.15,2013-05-15 09:00:00,
2013-05-15 04:05:00,67.7,65.6,30.17,North,32767,0.0,0.0,93,0.00,,,0.00,Wunderground v.1.15,2013-05-15 09:05:00,
2013-05-15 04:10:00,67.6,65.5,30.17,North,32767,0.0,0.0,93,0.00,,,0.00,Wunderground v.1.15,2013-05-15 09:10:00,
2013-05-15 04:15:00,67.3,65.2,30.17,North,32767,0.0,0.0,93,0.00,,,0.00,Wunderground v.1.15,2013-05-15 09:15:00,
2013-05-15 04:20:00,67.1,65.3,30.16,North,32767,0.0,0.0,94,0.00,,,0.00,Wunderground v.1.15,2013-05-15 09:20:00,
2013-05-15 04:25:00,66.9,65.1,30.16,North,32767,0.0,0.0,94,0.00,,,0.00,Wunderground v.1.15,2013-05-15 09:25:00,
2013-05-15 04:30:00,66.6,64.8,30.17,North,32767,0.0,0.0,94,0.00,,,0.00,Wunderground v.1.15,2013-05-15 09:30:00,
2013-05-15 04:35:00,66.4,64.6,30.16,North,32767,0.0,0.0,94,0.00,,,0.00,Wunderground v.1.15,2013-05-15 09:35:00,
2013-05-15 04:40:00,66.2,64.4,30.17,North,32767,0.0,0.0,94,0.00,,,0.00,Wunderground v.1.15,2013-05-15 09:40:00,
2013-05-15 04:45:00,66.0,64.2,30.17,North,32767,0.0,0.0,94,0.00,,,0.00,Wunderground v.1.15,2013-05-15 09:45:00,
2013-05-15 04:50:00,65.7,63.9,30.17,North,32767,0.0,0.0,94,0.00,,,0.00,Wunderground v.1.15,2013-05-15 09:50:00,
2013-05-15 04:55:00,65.5,63.7,30.17,North,32767,0.0,0.0,94,0.00,,,0.00,Wunderground v.1.15,2013-05-15 09:55:00,
2013-05-15 05:00:00,65.3,63.8,30.17,North,32767,0.0,0.0,95,0.00,,,0.00,Wunderground v.1.15,2013-05-15 10:00:00,
2013-05-15 05:05:00,65.1,63.6,30.17,North,32767,0.0,0.0,95,0.00,,,0.00,Wunderground v.1.15,2013-05-15 10:05:00,
2013-05-15 05:10:00,64.9,63.4,30.17,North,32767,0.0,0.0,95,0.00,,,0.00,Wunderground v.1.15,2013-05-15 10:10:00,
2013-05-15 05:15:00,64.8,63.3,30.17,North,32767,0.0,0.0,95,0.00,,,0.00,Wunderground v.1.15,2013-05-15 10:15:00,
2013-05-15 05:20:00,64.6,63.1,30.18,North,32767,0.0,0.0,95,0.00,,,0.00,Wunderground v.1.15,2013-05-15 10:20:00,
2013-05-15 05:30:00,64.3,62.8,30.18,North,32767,0.0,0.0,95,0.00,,,0.00,Wunderground v.1.15,2013-05-15 10:30:00,
2013-05-15 05:35:00,64.1,62.6,30.18,North,32767,0.0,0.0,95,0.00,,,0.00,Wunderground v.1.15,2013-05-15 10:35:00,
2013-05-15 05:40:00,63.8,62.6,30.18,North,32767,0.0,0.0,96,0.00,,,0.00,Wunderground v.1.15,2013-05-15 10:40:00,
2013-05-15 05:45:00,63.6,62.4,30.19,North,32767,0.0,0.0,96,0.00,,,0.00,Wunderground v.1.15,2013-05-15 10:45:00,
2013-05-15 05:50:00,63.4,62.2,30.19,North,32767,0.0,0.0,96,0.00,,,0.00,Wunderground v.1.15,2013-05-15 10:50:00,
2013-05-15 05:55:00,63.2,62.0,30.19,North,32767,0.0,0.0,96,0.00,,,0.00,Wunderground v.1.15,2013-05-15 10:55:00,
2013-05-15 06:00:00,63.0,61.8,30.19,North,32767,0.0,0.0,96,0.00,,,0.00,Wunderground v.1.15,2013-05-15 11:00:00,
2013-05-15 06:05:00,62.9,61.7,30.19,North,32767,0.0,0.0,96,0.00,,,0.00,Wunderground v.1.15,2013-05-15 11:05:00,
2013-05-15 06:10:00,62.7,61.5,30.18,North,32767,0.0,0.0,96,0.00,,,0.00,Wunderground v.1.15,2013-05-15 11:10:00,
2013-05-15 06:15:00,62.6,61.4,30.19,North,32767,0.0,0.0,96,0.00,,,0.00,Wunderground v.1.15,2013-05-15 11:15:00,
2013-05-15 06:25:00,62.3,61.1,30.18,North,32767,0.0,0.0,96,0.00,,,0.00,Wunderground v.1.15,2013-05-15 11:25:00,
2013-05-15 06:30:00,62.1,60.9,30.18,North,32767,0.0,0.0,96,0.00,,,0.00,Wunderground v.1.15,2013-05-15 11:30:00,
2013-05-15 06:35:00,62.1,60.9,30.18,North,32767,0.0,0.0,96,0.00,,,0.00,Wunderground v.1.15,2013-05-15 11:35:00,
2013-05-15 06:40:00,62.1,60.9,30.18,North,32767,0.0,0.0,96,0.00,,,0.00,Wunderground v.1.15,2013-05-15 11:40:00,
2013-05-15 06:45:00,62.2,61.3,30.19,North,32767,0.0,0.0,97,0.00,,,0.00,Wunderground v.1.15,2013-05-15 11:45:00,
2013-05-15 06:50:00,62.4,61.5,30.19,North,32767,0.0,0.0,97,0.00,,,0.00,Wunderground v.1.15,2013-05-15 11:50:00,
2013-05-15 06:55:00,62.5,61.6,30.19,North,32767,0.0,0.0,97,0.00,,,0.00,Wunderground v.1.15,2013-05-15 11:55:00,
2013-05-15 07:00:00,62.7,61.8,30.19,North,32767,0.0,0.0,97,0.00,,,0.00,Wunderground v.1.15,2013-05-15 12:00:00,
2013-05-15 07:05:00,63.0,62.1,30.19,North,32767,0.0,0.0,97,0.00,,,0.00,Wunderground v.1.15,2013-05-15 12:05:00,
2013-05-15 07:10:00,63.3,62.4,30.19,North,32767,0.0,0.0,97,0.00,,,0.00,Wunderground v.1.15,2013-05-15 12:10:00,
2013-05-15 07:15:00,63.7,62.8,30.19,North,32767,0.0,0.0,97,0.00,,,0.00,Wunderground v.1.15,2013-05-15 12:15:00,
2013-05-15 07:20:00,64.1,63.2,30.19,North,32767,0.0,0.0,97,0.00,,,0.00,Wunderground v.1.15,2013-05-15 12:20:00,
2013-05-15 07:25:00,64.5,63.6,30.20,North,32767,0.0,0.0,97,0.00,,,0.00,Wunderground v.1.15,2013-05-15 12:25:00,
2013-05-15 07:30:00,65.0,63.8,30.20,North,32767,0.0,0.0,96,0.00,,,0.00,Wunderground v.1.15,2013-05-15 12:30:00,
2013-05-15 07:35:00,65.6,64.4,30.20,North,32767,0.0,0.0,96,0.00,,,0.00,Wunderground v.1.15,2013-05-15 12:35:00,
2013-05-15 07:40:00,66.1,64.9,30.20,North,32767,0.0,0.0,96,0.00,,,0.00,Wunderground v.1.15,2013-05-15 12:40:00,
2013-05-15 07:45:00,66.6,65.4,30.20,North,32767,0.0,0.0,96,0.00,,,0.00,Wunderground v.1.15,2013-05-15 12:45:00,
2013-05-15 07:50:00,67.1,65.6,30.20,North,32767,0.0,0.0,95,0.00,,,0.00,Wunderground v.1.15,2013-05-15 12:50:00,
2013-05-15 08:00:00,68.0,66.2,30.20,North,32767,0.0,0.0,94,0.00,,,0.00,Wunderground v.1.15,2013-05-15 13:00:00,
2013-05-15 08:05:00,68.6,66.5,30.20,North,32767,0.0,0.0,93,0.00,,,0.00,Wunderground v.1.15,2013-05-15 13:05:00,
2013-05-15 08:10:00,69.1,67.0,30.20,North,32767,0.0,0.0,93,0.00,,,0.00,Wunderground v.1.15,2013-05-15 13:10:00,
2013-05-15 08:15:00,69.6,67.2,30.20,North,32767,0.0,0.0,92,0.00,,,0.00,Wunderground v.1.15,2013-05-15 13:15:00,
2013-05-15 08:20:00,70.1,67.3,30.20,North,32767,0.0,0.0,91,0.00,,,0.00,Wunderground v.1.15,2013-05-15 13:20:00,
2013-05-15 08:25:00,70.5,67.4,30.21,North,32767,0.0,0.0,90,0.00,,,0.00,Wunderground v.1.15,2013-05-15 13:25:00,
2013-05-15 08:30:00,70.9,67.5,30.21,North,32767,0.0,0.0,89,0.00,,,0.00,Wunderground v.1.15,2013-05-15 13:30:00,
2013-05-15 08:35:00,71.3,67.9,30.21,North,32767,0.0,0.0,89,0.00,,,0.00,Wunderground v.1.15,2013-05-15 13:35:00,
2013-05-15 08:40:00,71.6,68.2,30.21,North,32767,0.0,0.0,89,0.00,,,0.00,Wunderground v.1.15,2013-05-15 13:40:00,
2013-05-15 09:00:00,72.8,68.0,30.20,North,32767,0.0,0.0,85,0.00,,,0.00,Wunderground v.1.15,2013-05-15 14:00:00,
2013-05-15 09:05:00,73.1,68.0,30.20,North,32767,0.0,0.0,84,0.00,,,0.00,Wunderground v.1.15,2013-05-15 14:05:00,
2013-05-15 09:15:00,73.5,67.3,30.20,North,32767,0.0,0.0,81,0.00,,,0.00,Wunderground v.1.15,2013-05-15 14:15:00,
2013-05-15 09:20:00,73.9,68.4,30.20,North,32767,0.0,0.0,83,0.00,,,0.00,Wunderground v.1.15,2013-05-15 14:20:00,
2013-05-15 09:25:00,74.2,68.3,30.20,North,32767,0.0,0.0,82,0.00,,,0.00,Wunderground v.1.15,2013-05-15 14:25:00,
2013-05-15 09:30:00,74.3,68.4,30.20,North,32767,0.0,0.0,82,0.00,,,0.00,Wunderground v.1.15,2013-05-15 14:30:00,
2013-05-15 09:35:00,74.4,68.2,30.20,North,32767,0.0,0.0,81,0.00,,,0.00,Wunderground v.1.15,2013-05-15 14:35:00,
2013-05-15 09:40:00,74.5,68.3,30.20,North,32767,0.0,0.0,81,0.00,,,0.00,Wunderground v.1.15,2013-05-15 14:40:00,
2013-05-15 09:45:00,74.6,68.4,30.20,North,32767,0.0,0.0,81,0.00,,,0.00,Wunderground v.1.15,2013-05-15 14:45:00,
2013-05-15 09:50:00,74.9,68.7,30.20,North,32767,0.0,0.0,81,0.00,,,0.00,Wunderground v.1.15,2013-05-15 14:50:00,
2013-05-15 09:55:00,75.1,68.5,30.20,North,32767,0.0,0.0,80,0.00,,,0.00,Wunderground v.1.15,2013-05-15 14:55:00,
2013-05-15 10:00:00,75.5,69.3,30.20,North,32767,0.0,0.0,81,0.00,,,0.00,Wunderground v.1.15,2013-05-15 15:00:00,
2013-05-15 10:05:00,75.8,68.4,30.20,North,32767,0.0,0.0,78,0.00,,,0.00,Wunderground v.1.15,2013-05-15 15:05:00,
2013-05-15 10:20:00,76.0,68.6,30.20,North,32767,0.0,0.0,78,0.00,,,0.00,Wunderground v.1.15,2013-05-15 15:20:00,
2013-05-15 10:25:00,76.1,69.1,30.20,North,32767,0.0,0.0,79,0.00,,,0.00,Wunderground v.1.15,2013-05-15 15:25:00,
2013-05-15 10:30:00,76.3,68.2,30.20,North,32767,0.0,0.0,76,0.00,,,0.00,Wunderground v.1.15,2013-05-15 15:30:00,
2013-05-15 10:35:00,76.4,69.4,30.20,North,32767,0.0,0.0,79,0.00,,,0.00,Wunderground v.1.15,2013-05-15 15:35:00,
2013-05-15 10:40:00,76.3,69.3,30.20,North,32767,0.0,0.0,79,0.00,,,0.00,Wunderground v.1.15,2013-05-15 15:40:00,
2013-05-15 10:50:00,76.2,69.2,30.19,North,32767,0.0,0.0,79,0.00,,,0.00,Wunderground v.1.15,2013-05-15 15:50:00,
2013-05-15 10:55:00,76.4,69.8,30.19,North,32767,0.0,0.0,80,0.00,,,0.00,Wunderground v.1.15,2013-05-15 15:55:00,
2013-05-15 11:00:00,76.7,69.7,30.19,North,32767,0.0,0.0,79,0.00,,,0.00,Wunderground v.1.15,2013-05-15 16:00:00,
2013-05-15 11:10:00,77.1,69.3,30.19,North,32767,0.0,0.0,77,0.00,,,0.00,Wunderground v.1.15,2013-05-15 16:10:00,
2013-05-15 11:15:00,77.0,68.9,30.19,North,32767,0.0,0.0,76,0.00,,,0.00,Wunderground v.1.15,2013-05-15 16:15:00,
2013-05-15 11:20:00,76.9,68.4,30.19,North,32767,0.0,0.0,75,0.00,,,0.00,Wunderground v.1.15,2013-05-15 16:20:00,
2013-05-15 11:30:00,77.2,69.0,30.19,North,32767,0.0,0.0,76,0.00,,,0.00,Wunderground v.1.15,2013-05-15 16:30:00,
2013-05-15 11:35:00,77.3,68.8,30.19,North,32767,0.0,0.0,75,0.00,,,0.00,Wunderground v.1.15,2013-05-15 16:35:00,
2013-05-15 11:40:00,77.6,69.4,30.19,North,32767,0.0,0.0,76,0.00,,,0.00,Wunderground v.1.15,2013-05-15 16:40:00,
2013-05-15 11:50:00,78.0,69.8,30.19,North,32767,0.0,0.0,76,0.00,,,0.00,Wunderground v.1.15,2013-05-15 16:50:00,
2013-05-15 11:55:00,78.0,69.8,30.19,North,32767,0.0,0.0,76,0.00,,,0.00,Wunderground v.1.15,2013-05-15 16:55:00,
2013-05-15 12:00:00,78.0,69.0,30.18,North,32767,0.0,0.0,74,0.00,,,0.00,Wunderground v.1.15,2013-05-15 17:00:00,
2013-05-15 12:05:00,77.9,68.5,30.18,North,32767,0.0,0.0,73,0.00,,,0.00,Wunderground v.1.15,2013-05-15 17:05:00,
2013-05-15 12:10:00,78.0,69.0,30.18,North,32767,0.0,0.0,74,0.00,,,0.00,Wunderground v.1.15,2013-05-15 17:10:00,
2013-05-15 12:15:00,78.4,69.0,30.18,North,32767,0.0,0.0,73,0.00,,,0.00,Wunderground v.1.15,2013-05-15 17:15:00,
2013-05-15 12:20:00,78.5,68.3,30.18,North,32767,0.0,0.0,71,0.00,,,0.00,Wunderground v.1.15,2013-05-15 17:20:00,
2013-05-15 12:25:00,78.5,69.5,30.18,North,32767,0.0,0.0,74,0.00,,,0.00,Wunderground v.1.15,2013-05-15 17:25:00,
2013-05-15 12:30:00,78.9,69.1,30.18,North,32767,0.0,0.0,72,0.00,,,0.00,Wunderground v.1.15,2013-05-15 17:30:00,
2013-05-15 12:35:00,79.2,70.2,30.18,North,32767,0.0,0.0,74,0.00,,,0.00,Wunderground v.1.15,2013-05-15 17:35:00,
2013-05-15 12:40:00,79.0,68.4,30.18,North,32767,0.0,0.0,70,0.00,,,0.00,Wunderground v.1.15,2013-05-15 17:40:00,
2013-05-15 12:45:00,78.9,67.9,30.18,North,32767,0.0,0.0,69,0.00,,,0.00,Wunderground v.1.15,2013-05-15 17:45:00,
2013-05-15 12:50:00,79.1,68.1,30.18,North,32767,0.0,0.0,69,0.00,,,0.00,Wunderground v.1.15,2013-05-15 17:50:00,
2013-05-15 12:55:00,78.8,68.6,30.17,North,32767,0.0,0.0,71,0.00,,,0.00,Wunderground v.1.15,2013-05-15 17:55:00,
2013-05-15 13:00:00,79.0,69.2,30.17,North,32767,0.0,0.0,72,0.00,,,0.00,Wunderground v.1.15,2013-05-15 18:00:00,
2013-05-15 13:10:00,79.0,68.8,30.17,North,32767,0.0,0.0,71,0.00,,,0.00,Wunderground v.1.15,2013-05-15 18:10:00,
2013-05-15 13:15:00,78.8,69.0,30.17,North,32767,0.0,0.0,72,0.00,,,0.00,Wunderground v.1.15,2013-05-15 18:15:00,
2013-05-15 13:20:00,78.5,68.7,30.16,North,32767,0.0,0.0,72,0.00,,,0.00,Wunderground v.1.15,2013-05-15 18:20:00,
2013-05-15 13:25:00,78.8,68.2,30.16,North,32767,0.0,0.0,70,0.00,,,0.00,Wunderground v.1.15,2013-05-15 18:25:00,
2013-05-15 13:30:00,79.0,65.8,30.16,North,32767,0.0,0.0,64,0.00,,,0.00,Wunderground v.1.15,2013-05-15 18:30:00,
2013-05-15 13:35:00,79.2,67.3,30.16,North,32767,0.0,0.0,67,0.00,,,0.00,Wunderground v.1.15,2013-05-15 18:35:00,
2013-05-15 13:40:00,79.4,68.3,30.16,North,32767,0.0,0.0,69,0.00,,,0.00,Wunderground v.1.15,2013-05-15 18:40:00,
2013-05-15 13:45:00,79.7,67.3,30.15,North,32767,0.0,0.0,66,0.00,,,0.00,Wunderground v.1.15,2013-05-15 18:45:00,
2013-05-15 13:55:00,79.7,66.4,30.15,North,32767,0.0,0.0,64,0.00,,,0.00,Wunderground v.1.15,2013-05-15 18:55:00,
2013-05-15 14:00:00,79.6,66.3,30.15,North,32767,0.0,0.0,64,0.00,,,0.00,Wunderground v.1.15,2013-05-15 19:00:00,
2013-05-15 14:05:00,79.5,66.3,30.14,North,32767,0.0,0.0,64,0.00,,,0.00,Wunderground v.1.15,2013-05-15 19:05:00,
2013-05-15 14:15:00,79.4,66.6,30.14,North,32767,0.0,0.0,65,0.00,,,0.00,Wunderground v.1.15,2013-05-15 19:15:00,
2013-05-15 14:20:00,79.9,68.0,30.14,North,32767,0.0,0.0,67,0.00,,,0.00,Wunderground v.1.15,2013-05-15 19:20:00,
2013-05-15 14:25:00,80.3,67.0,30.13,North,32767,0.0,0.0,64,0.00,,,0.00,Wunderground v.1.15,2013-05-15 19:25:00,
2013-05-15 14:30:00,80.4,64.8,30.13,North,32767,0.0,0.0,59,0.00,,,0.00,Wunderground v.1.15,2013-05-15 19:30:00,
2013-05-15 14:35:00,80.4,63.8,30.13,North,32767,0.0,0.0,57,0.00,,,0.00,Wunderground v.1.15,2013-05-15 19:35:00,
2013-05-15 14:40:00,80.3,65.6,30.13,North,32767,0.0,0.0,61,0.00,,,0.00,Wunderground v.1.15,2013-05-15 19:40:00,
2013-05-15 14:45:00,80.3,62.7,30.12,North,32767,0.0,0.0,55,0.00,,,0.00,Wunderground v.1.15,2013-05-15 19:45:00,
2013-05-15 14:50:00,80.3,64.7,30.12,North,32767,0.0,0.0,59,0.00,,,0.00,Wunderground v.1.15,2013-05-15 19:50:00,
2013-05-15 14:55:00,80.3,63.7,30.12,North,32767,0.0,0.0,57,0.00,,,0.00,Wunderground v.1.15,2013-05-15 19:55:00,
2013-05-15 15:00:00,80.2,61.0,30.11,North,32767,0.0,0.0,52,0.00,,,0.00,Wunderground v.1.15,2013-05-15 20:00:00,
2013-05-15 15:05:00,80.0,63.4,30.11,North,32767,0.0,0.0,57,0.00,,,0.00,Wunderground v.1.15,2013-05-15 20:05:00,
2013-05-15 15:10:00,80.1,64.5,30.11,North,32767,0.0,0.0,59,0.00,,,0.00,Wunderground v.1.15,2013-05-15 20:10:00,
2013-05-15 15:15:00,79.8,64.2,30.11,North,32767,0.0,0.0,59,0.00,,,0.00,Wunderground v.1.15,2013-05-15 20:15:00,
2013-05-15 15:20:00,79.3,62.2,30.10,North,32767,0.0,0.0,56,0.00,,,0.00,Wunderground v.1.15,2013-05-15 20:20:00,
2013-05-15 15:25:00,79.0,62.0,30.10,North,32767,0.0,0.0,56,0.00,,,0.00,Wunderground v.1.15,2013-05-15 20:25:00,
2013-05-15 15:30:00,78.7,64.1,30.09,North,32767,0.0,0.0,61,0.00,,,0.00,Wunderground v.1.15,2013-05-15 20:30:00,
2013-05-15 15:35:00,78.8,61.8,30.09,North,32767,0.0,0.0,56,0.00,,,0.00,Wunderground v.1.15,2013-05-15 20:35:00,
2013-05-15 15:40:00,79.0,62.5,30.09,North,32767,0.0,0.0,57,0.00,,,0.00,Wunderground v.1.15,2013-05-15 20:40:00,
2013-05-15 15:45:00,79.0,61.5,30.09,North,32767,0.0,0.0,55,0.00,,,0.00,Wunderground v.1.15,2013-05-15 20:45:00,
2013-05-15 15:50:00,78.9,61.9,30.09,North,32767,0.0,0.0,56,0.00,,,0.00,Wunderground v.1.15,2013-05-15 20:50:00,
2013-05-15 15:55:00,78.8,59.7,30.09,North,32767,0.0,0.0,52,0.00,,,0.00,Wunderground v.1.15,2013-05-15 20:55:00,
2013-05-15 16:00:00,78.6,60.6,30.09,North,32767,0.0,0.0,54,0.00,,,0.00,Wunderground v.1.15,2013-05-15 21:00:00,
2013-05-15 16:05:00,78.7,62.7,30.09,North,32767,0.0,0.0,58,0.00,,,0.00,Wunderground v.1.15,2013-05-15 21:05:00,
2013-05-15 16:10:00,78.7,62.2,30.09,North,32767,0.0,0.0,57,0.00,,,0.00,Wunderground v.1.15,2013-05-15 21:10:00,
2013-05-15 16:15:00,78.4,62.9,30.09,North,32767,0.0,0.0,59,0.00,,,0.00,Wunderground v.1.15,2013-05-15 21:15:00,
2013-05-15 16:20:00,78.2,61.7,30.09,North,32767,0.0,0.0,57,0.00,,,0.00,Wunderground v.1.15,2013-05-15 21:20:00,
2013-05-15 16:25:00,77.9,61.4,30.09,North,32767,0.0,0.0,57,0.00,,,0.00,Wunderground v.1.15,2013-05-15 21:25:00,
2013-05-15 16:30:00,77.6,61.7,30.09,North,32767,0.0,0.0,58,0.00,,,0.00,Wunderground v.1.15,2013-05-15 21:30:00,
2013-05-15 16:40:00,77.5,63.0,30.09,North,32767,0.0,0.0,61,0.00,,,0.00,Wunderground v.1.15,2013-05-15 21:40:00,
2013-05-15 16:45:00,77.6,62.6,30.08,North,32767,0.0,0.0,60,0.00,,,0.00,Wunderground v.1.15,2013-05-15 21:45:00,
2013-05-15 16:50:00,77.7,62.2,30.09,North,32767,0.0,0.0,59,0.00,,,0.00,Wunderground v.1.15,2013-05-15 21:50:00,
2013-05-15 16:55:00,77.8,62.3,30.09,North,32767,0.0,0.0,59,0.00,,,0.00,Wunderground v.1.15,2013-05-15 21:55:00,
2013-05-15 17:00:00,77.7,61.7,30.09,North,32767,0.0,0.0,58,0.00,,,0.00,Wunderground v.1.15,2013-05-15 22:00:00,
2013-05-15 17:05:00,77.5,59.5,30.09,North,32767,0.0,0.0,54,0.00,,,0.00,Wunderground v.1.15,2013-05-15 22:05:00,
2013-05-15 17:10:00,77.4,60.0,30.08,North,32767,0.0,0.0,55,0.00,,,0.00,Wunderground v.1.15,2013-05-15 22:10:00,
2013-05-15 17:15:00,77.3,58.8,30.08,North,32767,0.0,0.0,53,0.00,,,0.00,Wunderground v.1.15,2013-05-15 22:15:00,
2013-05-15 17:25:00,76.9,60.5,30.08,North,32767,0.0,0.0,57,0.00,,,0.00,Wunderground v.1.15,2013-05-15 22:25:00,
2013-05-15 17:35:00,76.6,61.2,30.08,North,32767,0.0,0.0,59,0.00,,,0.00,Wunderground v.1.15,2013-05-15 22:35:00,
2013-05-15 17:40:00,76.4,61.5,30.08,North,32767,0.0,0.0,60,0.00,,,0.00,Wunderground v.1.15,2013-05-15 22:40:00,
2013-05-15 17:45:00,76.4,62.0,30.08,North,32767,0.0,0.0,61,0.00,,,0.00,Wunderground v.1.15,2013-05-15 22:45:00,
2013-05-15 17:50:00,76.2,61.8,30.07,North,32767,0.0,0.0,61,0.00,,,0.00,Wunderground v.1.15,2013-05-15 22:50:00,
2013-05-15 17:55:00,76.0,62.5,30.08,North,32767,0.0,0.0,63,0.00,,,0.00,Wunderground v.1.15,2013-05-15 22:55:00,
2013-05-15 18:00:00,75.9,62.4,30.07,North,32767,0.0,0.0,63,0.00,,,0.00,Wunderground v.1.15,2013-05-15 23:00:00,
2013-05-15 18:05:00,75.7,62.2,30.07,North,32767,0.0,0.0,63,0.00,,,0.00,Wunderground v.1.15,2013-05-15 23:05:00,
2013-05-15 18:10:00,75.6,62.1,30.07,North,32767,0.0,0.0,63,0.00,,,0.00,Wunderground v.1.15,2013-05-15 23:10:00,
2013-05-15 18:15:00,75.4,62.8,30.07,North,32767,0.0,0.0,65,0.00,,,0.00,Wunderground v.1.15,2013-05-15 23:15:00,
2013-05-15 18:20:00,75.3,62.7,30.07,North,32767,0.0,0.0,65,0.00,,,0.00,Wunderground v.1.15,2013-05-15 23:20:00,
2013-05-15 18:25:00,75.1,63.0,30.07,North,32767,0.0,0.0,66,0.00,,,0.00,Wunderground v.1.15,2013-05-15 23:25:00,
2013-05-15 18:30:00,75.0,62.9,30.07,North,32767,0.0,0.0,66,0.00,,,0.00,Wunderground v.1.15,2013-05-15 23:30:00,
2013-05-15 18:35:00,74.9,62.8,30.06,North,32767,0.0,0.0,66,0.00,,,0.00,Wunderground v.1.15,2013-05-15 23:35:00,
2013-05-15 18:40:00,74.8,62.2,30.06,North,32767,0.0,0.0,65,0.00,,,0.00,Wunderground v.1.15,2013-05-15 23:40:00,
2013-05-15 18:45:00,74.7,62.6,30.06,North,32767,0.0,0.0,66,0.00,,,0.00,Wunderground v.1.15,2013-05-15 23:45:00,
2013-05-15 18:50:00,74.7,62.6,30.06,North,32767,0.0,0.0,66,0.00,,,0.00,Wunderground v.1.15,2013-05-15 23:50:00,
2013-05-15 18:55:00,74.6,62.9,30.06,North,32767,0.0,0.0,67,0.00,,,0.00,Wunderground v.1.15,2013-05-15 23:55:00,
2013-05-15 19:00:00,74.5,62.4,30.06,North,32767,0.0,0.0,66,0.00,,,0.00,Wunderground v.1.15,2013-05-16 00:00:00,
2013-05-15 19:05:00,74.4,63.1,30.06,North,32767,0.0,0.0,68,0.00,,,0.00,Wunderground v.1.15,2013-05-16 00:05:00,
2013-05-15 19:10:00,74.3,63.1,30.06,North,32767,0.0,0.0,68,0.00,,,0.00,Wunderground v.1.15,2013-05-16 00:10:00,
2013-05-15 19:15:00,74.2,63.4,30.05,North,32767,0.0,0.0,69,0.00,,,0.00,Wunderground v.1.15,2013-05-16 00:15:00,
2013-05-15 19:25:00,73.8,63.0,30.05,North,32767,0.0,0.0,69,0.00,,,0.00,Wunderground v.1.15,2013-05-16 00:25:00,
2013-05-15 19:30:00,73.6,63.6,30.05,North,32767,0.0,0.0,71,0.00,,,0.00,Wunderground v.1.15,2013-05-16 00:30:00,
2013-05-15 19:35:00,73.5,63.5,30.05,North,32767,0.0,0.0,71,0.00,,,0.00,Wunderground v.1.15,2013-05-16 00:35:00,
2013-05-15 19:40:00,73.3,63.3,30.05,North,32767,0.0,0.0,71,0.00,,,0.00,Wunderground v.1.15,2013-05-16 00:40:00,
2013-05-15 19:45:00,73.2,64.0,30.05,North,32767,0.0,0.0,73,0.00,,,0.00,Wunderground v.1.15,2013-05-16 00:45:00,
2013-05-15 19:55:00,72.9,63.7,30.05,North,32767,0.0,0.0,73,0.00,,,0.00,Wunderground v.1.15,2013-05-16 00:55:00,
2013-05-15 20:00:00,72.8,64.0,30.05,North,32767,0.0,0.0,74,0.00,,,0.00,Wunderground v.1.15,2013-05-16 01:00:00,
2013-05-15 20:05:00,72.7,64.3,30.05,North,32767,0.0,0.0,75,0.00,,,0.00,Wunderground v.1.15,2013-05-16 01:05:00,
2013-05-15 20:10:00,72.6,64.2,30.05,North,32767,0.0,0.0,75,0.00,,,0.00,Wunderground v.1.15,2013-05-16 01:10:00,
2013-05-15 20:15:00,72.6,65.0,30.04,North,32767,0.0,0.0,77,0.00,,,0.00,Wunderground v.1.15,2013-05-16 01:15:00,
2013-05-15 20:20:00,72.5,64.9,30.04,North,32767,0.0,0.0,77,0.00,,,0.00,Wunderground v.1.15,2013-05-16 01:20:00,
2013-05-15 20:25:00,72.5,65.2,30.04,North,32767,0.0,0.0,78,0.00,,,0.00,Wunderground v.1.15,2013-05-16 01:25:00,
2013-05-15 20:30:00,72.5,65.2,30.04,North,32767,0.0,0.0,78,0.00,,,0.00,Wunderground v.1.15,2013-05-16 01:30:00,
2013-05-15 20:35:00,72.5,65.6,30.04,North,32767,0.0,0.0,79,0.00,,,0.00,Wunderground v.1.15,2013-05-16 01:35:00,
2013-05-15 20:40:00,72.4,65.9,30.04,North,32767,0.0,0.0,80,0.00,,,0.00,Wunderground v.1.15,2013-05-16 01:40:00,
2013-05-15 20:50:00,72.4,65.9,30.04,North,32767,0.0,0.0,80,0.00,,,0.00,Wunderground v.1.15,2013-05-16 01:50:00,
2013-05-15 20:55:00,72.4,65.9,30.04,North,32767,0.0,0.0,80,0.00,,,0.00,Wunderground v.1.15,2013-05-16 01:55:00,
2013-05-15 21:00:00,72.4,66.6,30.04,North,32767,0.0,0.0,82,0.00,,,0.00,Wunderground v.1.15,2013-05-16 02:00:00,
2013-05-15 21:05:00,72.4,66.6,30.04,North,32767,0.0,0.0,82,0.00,,,0.00,Wunderground v.1.15,2013-05-16 02:05:00,
2013-05-15 21:10:00,72.3,66.8,30.04,North,32767,0.0,0.0,83,0.00,,,0.00,Wunderground v.1.15,2013-05-16 02:10:00,
2013-05-15 21:15:00,72.2,66.7,30.05,North,32767,0.0,0.0,83,0.00,,,0.00,Wunderground v.1.15,2013-05-16 02:15:00,
2013-05-15 21:20:00,72.2,67.1,30.05,North,32767,0.0,0.0,84,0.00,,,0.00,Wunderground v.1.15,2013-05-16 02:20:00,
2013-05-15 21:25:00,72.1,67.0,30.05,North,32767,0.0,0.0,84,0.00,,,0.00,Wunderground v.1.15,2013-05-16 02:25:00,
2013-05-15 21:35:00,72.0,66.9,30.04,North,32767,0.0,0.0,84,0.00,,,0.00,Wunderground v.1.15,2013-05-16 02:35:00,
2013-05-15 21:40:00,72.0,67.2,30.04,North,32767,0.0,0.0,85,0.00,,,0.00,Wunderground v.1.15,2013-05-16 02:40:00,
2013-05-15 21:50:00,71.9,67.5,30.04,North,32767,0.0,0.0,86,0.00,,,0.00,Wunderground v.1.15,2013-05-16 02:50:00,
2013-05-15 21:55:00,72.0,67.6,30.04,North,32767,0.0,0.0,86,0.00,,,0.00,Wunderground v.1.15,2013-05-16 02:55:00,
2013-05-15 22:00:00,71.9,67.5,30.04,North,32767,0.0,0.0,86,0.00,,,0.00,Wunderground v.1.15,2013-05-16 03:00:00,
2013-05-15 22:05:00,71.9,67.8,30.04,North,32767,0.0,0.0,87,0.00,,,0.00,Wunderground v.1.15,2013-05-16 03:05:00,
2013-05-15 22:10:00,71.9,67.8,30.04,North,32767,0.0,0.0,87,0.00,,,0.00,Wunderground v.1.15,2013-05-16 03:10:00,
2013-05-15 22:15:00,71.9,68.2,30.04,North,32767,0.0,0.0,88,0.00,,,0.00,Wunderground v.1.15,2013-05-16 03:15:00,
2013-05-15 22:20:00,71.9,67.8,30.04,North,32767,0.0,0.0,87,0.00,,,0.00,Wunderground v.1.15,2013-05-16 03:20:00,
2013-05-15 22:25:00,71.9,68.2,30.04,North,32767,0.0,0.0,88,0.00,,,0.00,Wunderground v.1.15,2013-05-16 03:25:00,
2013-05-15 22:35:00,71.9,68.2,30.04,North,32767,0.0,0.0,88,0.00,,,0.00,Wunderground v.1.15,2013-05-16 03:35:00,
2013-05-15 22:45:00,71.9,68.2,30.03,North,32767,0.0,0.0,88,0.00,,,0.00,Wunderground v.1.15,2013-05-16 03:45:00,
2013-05-15 22:50:00,71.9,68.2,30.03,North,32767,0.0,0.0,88,0.00,,,0.00,Wunderground v.1.15,2013-05-16 03:50:00,
2013-05-15 23:00:00,71.9,68.5,30.03,North,32767,0.0,0.0,89,0.00,,,0.00,Wunderground v.1.15,2013-05-16 04:00:00,
2013-05-15 23:05:00,71.8,68.1,30.03,North,32767,0.0,0.0,88,0.00,,,0.00,Wunderground v.1.15,2013-05-16 04:05:00,
2013-05-15 23:10:00,71.9,68.2,30.03,North,32767,0.0,0.0,88,0.00,,,0.00,Wunderground v.1.15,2013-05-16 04:10:00,
2013-05-15 23:15:00,71.8,68.4,30.03,North,32767,0.0,0.0,89,0.00,,,0.00,Wunderground v.1.15,2013-05-16 04:15:00,
2013-05-15 23:20:00,71.8,68.1,30.03,North,32767,0.0,0.0,88,0.00,,,0.00,Wunderground v.1.15,2013-05-16 04:20:00,
2013-05-15 23:25:00,71.8,68.1,30.03,North,32767,0.0,0.0,88,0.00,,,0.00,Wunderground v.1.15,2013-05-16 04:25:00,
2013-05-15 23:30:00,71.8,67.7,30.04,North,32767,0.0,0.0,87,0.00,,,0.00,Wunderground v.1.15,2013-05-16 04:30:00,
2013-05-15 23:35:00,71.9,67.8,30.04,North,32767,0.0,0.0,87,0.00,,,0.00,Wunderground v.1.15,2013-05-16 04:35:00,
2013-05-15 23:40:00,72.0,67.9,30.04,North,32767,0.0,0.0,87,0.00,,,0.00,Wunderground v.1.15,2013-05-16 04:40:00,
2013-05-15 23:45:00,72.0,67.9,30.04,North,32767,0.0,0.0,87,0.00,,,0.00,Wunderground v.1.15,2013-05-16 04:45:00,
2013-05-15 23:50:00,72.0,67.6,30.04,North,32767,0.0,0.0,86,0.00,,,0.00,Wunderground v.1.15,2013-05-16 04:50:00,
2013-05-15 23:55:00,72.0,67.6,30.04,North,32767,0.0,0.0,86,0.00,,,0.00,Wunderground v.1.15,2013-05-16 04:55:00,